WW5JC Weather Reports


time (UTC)temp
C
wind
direction
speed
KPH
gust
KPH
rain 1hr
cm
rain 24hr
cm
rain mn
cm
humidity
%
barometer
mb
20260506153236 12 333 4.8 6.4 0.00 0.00 0.00 92 1016.6
20260506152733 12 327 9.7 12.9 0.00 0.00 0.00 92 1016.6
20260506152230 12 357 4.8 6.4 0.00 0.00 0.00 92 1016.1
20260506151729 12 11 4.8 6.4 0.00 0.00 0.00 91 1016.1
20260506151225 12 4 6.4 6.4 0.00 0.00 0.00 92 1016.5
20260506150721 12 344 9.7 11.3 0.00 0.00 0.00 91 1016.3
20260506150219 12 325 6.4 6.4 0.00 0.00 0.00 91 1016.1
20260506145716 12 17 8.0 9.7 0.00 0.00 0.00 91 1016.1
20260506145212 12 31 12.9 16.1 0.00 0.00 0.00 91 1015.8
20260506144710 12 341 9.7 11.3 0.00 0.00 0.00 91 1015.7
20260506144206 12 359 16.1 17.7 0.00 0.00 0.00 91 1015.6
20260506143704 12 49 4.8 4.8 0.00 0.00 0.00 91 1015.4
20260506143202 12 1 16.1 24.1 0.00 0.00 0.00 91 1015.5
20260506142700 12 2 6.4 9.7 0.00 0.00 0.00 91 1015.7
20260506142158 12 24 6.4 9.7 0.00 0.00 0.00 91 1015.3
20260506141655 12 16 6.4 6.4 0.00 0.00 0.00 91 1015.2
20260506141153 12 344 8.0 9.7 0.00 0.00 0.00 91 1015.2
20260506140651 12 349 9.7 12.9 0.00 0.00 0.00 91 1015.1
20260506140148 12 2 6.4 6.4 0.00 0.00 0.00 91 1015.2
20260506135644 12 352 6.4 6.4 0.00 0.00 0.00 91 1015.1
20260506135141 12 6 12.9 14.5 0.00 0.00 0.00 91 1015.1
20260506134637 12 333 8.0 9.7 0.00 0.00 0.00 91 1015.0
20260506134133 12 342 9.7 11.3 0.00 0.00 0.00 91 1015.0
20260506133631 12 345 9.7 11.3 0.00 0.00 0.00 91 1015.0
20260506133128 12 24 6.4 6.4 0.00 0.00 0.00 91 1015.3
20260506132625 12 7 6.4 9.7 0.00 0.00 0.00 91 1015.1
20260506132122 12 347 9.7 11.3 0.00 0.00 0.00 91 1015.0
20260506131619 12 344 9.7 11.3 0.00 0.00 0.00 90 1014.9
20260506131115 12 356 8.0 9.7 0.00 0.00 0.00 90 1014.9
20260506130612 12 11 6.4 6.4 0.00 0.00 0.00 90 1015.0
20260506130110 12 342 6.4 9.7 0.00 0.00 0.00 90 1014.9
20260506125608 12 356 8.0 9.7 0.00 0.00 0.00 90 1015.0
20260506125106 12 350 14.5 17.7 0.00 0.00 0.00 90 1015.0
20260506124603 12 351 9.7 12.9 0.00 0.00 0.00 90 1014.6
20260506124101 11 344 3.2 3.2 0.00 0.00 0.00 91 1014.5
20260506123558 11 19 6.4 6.4 0.00 0.00 0.00 90 1014.3
20260506123057 11 346 11.3 16.1 0.00 0.00 0.00 90 1014.3
20260506122552 11 346 8.0 9.7 0.00 0.00 0.00 90 1014.2
20260506122051 11 354 17.7 20.9 0.00 0.00 0.00 90 1014.0
20260506121548 11 339 8.0 11.3 0.00 0.00 0.00 90 1014.1
20260506121044 11 320 11.3 12.9 0.00 0.00 0.00 90 1014.0
20260506120542 12 1 8.0 11.3 0.00 0.00 0.00 90 1013.8
20260506120039 12 336 14.5 14.5 0.00 0.00 0.00 89 1013.7
20260506115537 12 357 8.0 11.3 0.00 0.00 0.00 90 1013.9
20260506115036 12 354 11.3 14.5 0.00 0.00 0.00 90 1013.6
20260506114532 12 305 16.1 17.7 0.00 0.00 0.00 89 1013.7
20260506114031 12 20 19.3 24.1 0.00 0.00 0.00 89 1013.4
20260506113528 12 316 9.7 12.9 0.00 0.00 0.00 89 1013.3
20260506113026 12 339 8.0 12.9 0.00 0.00 0.00 89 1013.2
20260506112522 12 307 11.3 14.5 0.00 0.00 0.00 89 1013.4
20260506112019 12 319 4.8 6.4 0.00 0.00 0.00 89 1013.2
20260506111518 12 4 9.7 11.3 0.00 0.00 0.00 89 1012.9
20260506111014 12 351 14.5 16.1 0.00 0.00 0.00 89 1012.9
20260506110512 12 332 9.7 12.9 0.00 0.00 0.00 90 1012.7
20260506110009 12 303 12.9 14.5 0.00 0.00 0.00 89 1012.8
20260506105505 12 349 9.7 12.9 0.00 0.00 0.00 89 1012.6
20260506105002 12 335 9.7 11.3 0.00 0.00 0.00 89 1012.4
20260506104500 12 313 9.7 12.9 0.00 0.00 0.00 89 1012.4
20260506103958 12 350 8.0 11.3 0.00 0.00 0.00 89 1012.4
20260506103455 12 336 4.8 9.7 0.00 0.00 0.00 90 1012.3
20260506102952 12 344 6.4 6.4 0.00 0.00 0.00 90 1012.4
20260506102450 12 347 11.3 14.5 0.00 0.00 0.00 89 1012.5
20260506101947 12 332 6.4 6.4 0.00 0.00 0.00 90 1012.4
20260506101443 12 302 6.4 11.3 0.00 0.00 0.00 90 1012.4
20260506100941 12 272 3.2 3.2 0.00 0.00 0.00 90 1012.2
20260506100439 12 327 8.0 9.7 0.00 0.00 0.00 90 1012.2
20260506095937 12 338 8.0 9.7 0.00 0.00 0.00 89 1012.3
20260506095435 12 290 9.7 12.9 0.00 0.00 0.00 89 1012.2
20260506094931 12 348 8.0 11.3 0.00 0.00 0.00 89 1012.0
20260506094430 12 323 6.4 6.4 0.00 0.00 0.00 89 1011.8
20260506093927 12 347 9.7 9.7 0.00 0.00 0.00 89 1011.7
20260506093425 12 336 3.2 4.8 0.00 0.00 0.00 89 1011.5
20260506092922 12 348 3.2 3.2 0.00 0.00 0.00 89 1011.5
20260506092420 12 327 6.4 11.3 0.00 0.00 0.00 89 1011.7
20260506091916 12 350 9.7 11.3 0.00 0.00 0.00 89 1011.6
20260506091414 12 331 6.4 6.4 0.00 0.00 0.00 89 1012.0
20260506090911 12 339 9.7 12.9 0.00 0.00 0.00 89 1011.8
20260506090409 12 344 8.0 11.3 0.00 0.00 0.00 89 1011.6
20260506085905 12 318 6.4 6.4 0.00 0.00 0.00 89 1011.5
20260506085402 12 347 3.2 3.2 0.00 0.00 0.00 88 1011.6
20260506084858 12 347 6.4 6.4 0.00 0.00 0.00 88 1011.7
20260506084355 12 314 1.6 3.2 0.00 0.00 0.00 88 1011.6
20260506083852 12 326 4.8 9.7 0.00 0.00 0.00 87 1011.7
20260506083350 12 327 3.2 4.8 0.00 0.00 0.00 87 1011.7
20260506082847 12 323 6.4 9.7 0.00 0.00 0.00 86 1011.4
20260506082344 12 340 4.8 4.8 0.00 0.00 0.00 86 1011.4
20260506081839 12 334 6.4 6.4 0.00 0.00 0.00 85 1011.0
20260506081337 12 334 11.3 14.5 0.00 0.00 0.00 85 1011.2
20260506080835 12 344 4.8 6.4 0.00 0.00 0.00 85 1011.0
20260506080331 12 320 6.4 9.7 0.00 0.00 0.00 85 1011.0
20260506073310 13 335 11.3 16.1 0.00 0.00 0.00 84 1011.2
20260506072807 13 25 6.4 9.7 0.00 0.00 0.00 84 1011.3
20260506072306 13 358 3.2 3.2 0.00 0.00 0.00 84 1011.4
20260506071802 13 350 8.0 12.9 0.00 0.00 0.00 84 1011.4
20260506071300 13 347 6.4 6.4 0.00 0.00 0.00 84 1011.5
20260506070756 13 327 16.1 20.9 0.00 0.00 0.00 84 1011.4
20260506070254 13 306 6.4 9.7 0.00 0.00 0.00 84 1011.5
20260506062230 13 343 11.3 12.9 0.00 0.00 0.00 85 1011.2
20260506061726 13 2 6.4 6.4 0.00 0.00 0.00 85 1011.2
20260506061223 13 347 6.4 6.4 0.00 0.00 0.00 85 1011.2
20260506060722 13 350 11.3 12.9 0.00 0.00 0.00 85 1011.1
20260506060218 13 326 6.4 6.4 0.00 0.00 0.00 85 1010.8
20260506051150 14 339 12.9 14.5 0.00 0.00 0.00 86 1010.9
20260506050649 14 339 8.0 11.3 0.00 0.00 0.00 86 1010.8
20260506050146 15 356 6.4 11.3 0.00 0.00 0.00 86 1011.0
20260506044637 15 349 11.3 14.5 0.00 0.00 0.00 86 1010.9
20260506044134 15 318 11.3 16.1 0.00 0.00 0.00 85 1010.8
20260506043631 15 348 11.3 14.5 0.00 0.00 0.00 85 1010.6
20260506043129 15 332 9.7 11.3 0.00 0.00 0.00 85 1010.4
20260506042627 15 315 12.9 16.1 0.00 0.00 0.00 85 1010.6
20260506042125 15 311 12.9 14.5 0.00 0.00 0.00 85 1010.3
20260506041624 15 336 9.7 11.3 0.00 0.00 0.00 85 1010.5
20260506041120 15 308 9.7 12.9 0.00 0.00 0.00 85 1010.4
20260506040618 16 353 6.4 9.7 0.00 0.00 0.00 85 1010.4
20260506040114 16 15 6.4 9.7 0.00 0.00 0.00 85 1010.2
20260506035611 16 336 14.5 16.1 0.00 0.00 0.00 84 1010.3
20260506035108 16 355 8.0 12.9 0.00 0.00 0.00 85 1010.3
20260506034606 16 296 12.9 17.7 0.00 0.00 0.00 85 1010.1
20260506034103 16 311 16.1 17.7 0.00 0.00 0.00 84 1010.1
20260506033600 16 355 17.7 20.9 0.00 0.00 0.00 84 1010.1
20260506033056 17 349 19.3 24.1 0.00 0.00 0.00 84 1009.8
20260506032554 17 325 8.0 12.9 0.00 0.00 0.00 86 1009.9
20260506032050 17 313 6.4 9.7 0.00 0.00 0.00 85 1009.7
20260506031548 17 346 8.0 9.7 0.00 0.00 0.00 85 1009.4
20260506031045 17 328 3.2 4.8 0.00 0.00 0.00 85 1009.5
20260506030543 18 335 3.2 4.8 0.00 0.00 0.00 85 1009.4
20260506030040 18 270 9.7 14.5 0.00 0.00 0.00 85 1009.2
20260506025537 18 326 4.8 6.4 0.00 0.00 0.00 84 1008.9
20260506025032 18 302 8.0 11.3 0.00 0.00 0.00 85 1009.0
20260506024529 18 272 6.4 11.3 0.00 0.00 0.00 84 1009.0
20260506024026 18 348 11.3 14.5 0.00 0.00 0.00 84 1008.7
20260506023522 19 326 14.5 17.7 0.00 0.00 0.00 83 1008.8
20260506023020 19 332 11.3 12.9 0.00 0.00 0.00 83 1008.9
20260506022517 20 352 12.9 20.9 0.00 0.00 0.00 84 1008.3
20260506022015 20 342 4.8 4.8 0.00 0.00 0.00 84 1008.1
20260506021512 20 335 3.2 4.8 0.00 0.00 0.00 84 1008.3
20260506021009 20 338 3.2 4.8 0.00 0.00 0.00 84 1008.3
20260506020506 20 312 12.9 17.7 0.00 0.00 0.00 83 1008.5
20260506020004 20 323 11.3 14.5 0.00 0.00 0.00 83 1008.6
20260506015501 21 358 8.0 11.3 0.00 0.00 0.00 82 1007.7
20260506014957 21 340 9.7 14.5 0.00 0.00 0.00 82 1007.2
20260506014454 21 296 4.8 6.4 0.00 0.00 0.00 82 1007.5
20260506013951 22 303 6.4 9.7 0.00 0.00 0.00 81 1007.9
20260506013449 22 323 6.4 6.4 0.00 0.00 0.00 80 1007.3
20260506012945 22 289 6.4 6.4 0.00 0.00 0.00 79 1007.4
20260506012442 23 307 9.7 12.9 0.00 0.00 0.00 76 1007.4
20260506011938 24 346 4.8 9.7 0.00 0.00 0.00 70 1007.3
20260506011436 25 330 6.4 12.9 0.00 0.00 0.00 67 1007.1
20260506010933 25 305 1.6 3.2 0.00 0.00 0.00 64 1007.3
20260506010432 25 232 3.2 3.2 0.00 0.00 0.00 64 1007.2
20260506005927 25 279 3.2 3.2 0.00 0.00 0.00 64 1007.5
20260506005426 25 309 3.2 4.8 0.00 0.00 0.00 65 1007.3
20260506004921 25 302 8.0 11.3 0.00 0.00 0.00 65 1006.9
20260506004419 25 335 6.4 6.4 0.00 0.00 0.00 81 1006.7
20260506003915 25 208 4.8 4.8 0.00 0.00 0.00 85 1006.8
20260506003411 25 186 3.2 3.2 0.00 0.00 0.00 85 1007.0
20260506002908 26 186 3.2 3.2 0.00 0.00 0.00 84 1006.3
20260506002404 26 203 3.2 4.8 0.00 0.00 0.00 84 1006.4
20260506001859 26 200 3.2 3.2 0.00 0.00 0.00 83 1006.3
20260506001357 26 193 3.2 4.8 0.00 0.00 0.00 83 1006.5
20260506000854 26 188 3.2 3.2 0.00 0.00 0.00 84 1006.2
20260506000354 26 162 4.8 6.4 0.00 0.00 0.00 84 1006.0
20260505235848 26 197 9.7 11.3 0.00 0.00 0.00 83 1006.4
20260505235346 26 186 4.8 4.8 0.00 0.00 0.00 83 1006.1
20260505234843 26 179 4.8 6.4 0.00 0.00 0.00 82 1006.1
20260505234340 26 188 3.2 4.8 0.00 0.00 0.00 82 1006.1
20260505233837 26 195 8.0 11.3 0.00 0.00 0.00 81 1006.2
20260505233335 26 196 9.7 12.9 0.00 0.00 0.00 81 1006.0
20260505232832 26 183 6.4 6.4 0.00 0.00 0.00 80 1005.9
20260505232330 26 193 9.7 14.5 0.00 0.00 0.00 80 1006.0
20260505231826 27 199 11.3 12.9 0.00 0.00 0.00 79 1006.2
20260505231324 27 186 9.7 11.3 0.00 0.00 0.00 78 1006.2
20260505230822 27 201 9.7 11.3 0.00 0.00 0.00 78 1006.2
20260505230319 27 182 6.4 6.4 0.00 0.00 0.00 79 1006.3
20260505225815 27 176 8.0 11.3 0.00 0.00 0.00 78 1005.7
20260505225312 27 173 12.9 14.5 0.00 0.00 0.00 77 1005.8
20260505224807 27 200 6.4 9.7 0.00 0.00 0.00 78 1005.7
20260505224305 27 199 3.2 4.8 0.00 0.00 0.00 79 1005.8
20260505223802 27 195 8.0 11.3 0.00 0.00 0.00 78 1005.8
20260505223259 27 188 4.8 4.8 0.00 0.00 0.00 78 1005.8
20260505222755 27 195 9.7 11.3 0.00 0.00 0.00 78 1005.6
20260505222251 27 191 12.9 14.5 0.00 0.00 0.00 78 1005.7
20260505221748 27 193 11.3 12.9 0.00 0.00 0.00 78 1006.0
20260505221245 27 209 9.7 12.9 0.00 0.00 0.00 79 1005.9
20260505220741 27 197 8.0 11.3 0.00 0.00 0.00 78 1005.9
20260505220239 27 202 9.7 12.9 0.00 0.00 0.00 78 1006.1
20260505215738 27 205 11.3 14.5 0.00 0.00 0.00 77 1006.1
20260505215235 27 215 14.5 17.7 0.00 0.00 0.00 77 1006.2
20260505214733 27 230 11.3 12.9 0.00 0.00 0.00 77 1006.1
20260505214230 27 188 8.0 9.7 0.00 0.00 0.00 77 1006.1
20260505213727 27 181 9.7 11.3 0.00 0.00 0.00 76 1006.1
20260505213225 27 186 14.5 20.9 0.00 0.00 0.00 76 1006.1
20260505212720 27 180 6.4 9.7 0.00 0.00 0.00 76 1006.1
20260505212217 27 187 8.0 9.7 0.00 0.00 0.00 77 1006.2
20260505211715 27 188 6.4 6.4 0.00 0.00 0.00 76 1006.4
20260505211212 27 214 3.2 4.8 0.00 0.00 0.00 79 1006.3
20260505210709 27 208 4.8 6.4 0.00 0.00 0.00 78 1006.3
20260505210205 27 203 6.4 9.7 0.00 0.00 0.00 77 1006.3
20260505205702 27 195 14.5 17.7 0.00 0.00 0.00 78 1006.4
20260505205200 27 187 11.3 14.5 0.00 0.00 0.00 77 1006.5
20260505204651 27 182 3.2 4.8 0.00 0.00 0.00 77 1006.4
20260505204149 27 185 8.0 11.3 0.00 0.00 0.00 79 1006.7
20260505203646 27 191 6.4 9.7 0.00 0.00 0.00 79 1006.6
20260505203142 27 191 8.0 11.3 0.00 0.00 0.00 78 1006.5
20260505202637 26 189 14.5 16.1 0.00 0.00 0.00 79 1006.5
20260505202134 26 184 12.9 14.5 0.00 0.00 0.00 78 1006.6
20260505201626 26 198 8.0 9.7 0.00 0.00 0.00 79 1006.7
20260505201123 26 178 11.3 14.5 0.00 0.00 0.00 79 1006.8
20260505200621 26 203 6.4 9.7 0.00 0.00 0.00 80 1006.7
20260505200117 26 197 14.5 17.7 0.00 0.00 0.00 78 1006.8
20260505195614 26 203 19.3 22.5 0.00 0.00 0.00 78 1006.4
20260505195111 26 187 12.9 17.7 0.00 0.00 0.00 78 1006.5
20260505194609 26 250 9.7 11.3 0.00 0.00 0.00 79 1006.7
20260505194104 26 200 9.7 14.5 0.00 0.00 0.00 78 1006.7
20260505193601 26 197 16.1 20.9 0.00 0.00 0.00 77 1006.6
20260505193058 26 197 8.0 14.5 0.00 0.00 0.00 79 1006.7
20260505192557 26 182 12.9 16.1 0.00 0.00 0.00 78 1006.5
20260505192054 26 176 14.5 17.7 0.00 0.00 0.00 78 1006.7
20260505191552 27 181 14.5 16.1 0.00 0.00 0.00 77 1006.6
20260505191050 27 182 9.7 11.3 0.00 0.00 0.00 76 1006.7
20260505190550 27 199 9.7 11.3 0.00 0.00 0.00 77 1006.5
20260505190046 27 215 17.7 25.7 0.00 0.00 0.00 75 1006.5
20260505185543 26 212 17.7 20.9 0.00 0.00 0.00 77 1006.8
20260505185039 26 196 12.9 16.1 0.00 0.00 0.00 78 1006.7
20260505184536 26 205 12.9 16.1 0.00 0.00 0.00 78 1006.8
20260505184033 26 193 17.7 24.1 0.00 0.00 0.00 79 1006.6
20260505183530 26 202 16.1 20.9 0.00 0.00 0.00 78 1006.9
20260505183027 26 202 17.7 24.1 0.00 0.00 0.00 78 1006.9
20260505182523 26 199 6.4 6.4 0.00 0.00 0.00 78 1007.0
20260505182020 26 180 8.0 11.3 0.00 0.00 0.00 77 1007.1
20260505181511 26 179 11.3 14.5 0.00 0.00 0.00 78 1006.6
20260505181008 26 179 16.1 20.9 0.00 0.00 0.00 78 1006.7
20260505180503 25 188 17.7 20.9 0.00 0.00 0.00 80 1006.8
20260505180001 25 236 25.7 33.8 0.00 0.00 0.00 79 1006.9
20260505175456 25 178 16.1 22.5 0.00 0.00 0.00 81 1007.2
20260505174954 25 277 9.7 14.5 0.00 0.00 0.00 80 1007.0
20260505174451 25 189 17.7 24.1 0.00 0.00 0.00 80 1006.9
20260505173947 25 148 16.1 17.7 0.00 0.00 0.00 81 1006.5
20260505173443 25 170 11.3 12.9 0.00 0.00 0.00 81 1006.3
20260505172940 25 168 11.3 16.1 0.00 0.00 0.00 83 1006.2
20260505172439 24 136 6.4 6.4 0.00 0.00 0.00 84 1006.3
20260505171938 24 230 19.3 24.1 0.00 0.00 0.00 83 1007.1
20260505171435 24 180 17.7 22.5 0.00 0.00 0.00 83 1007.5
20260505170932 24 201 12.9 16.1 0.00 0.00 0.00 83 1007.6
20260505170428 24 189 12.9 14.5 0.00 0.00 0.00 83 1007.3
20260505165924 24 226 16.1 17.7 0.00 0.00 0.00 82 1007.3
20260505165420 24 199 20.9 29.0 0.00 0.00 0.00 82 1007.1
20260505164915 24 197 17.7 22.5 0.00 0.00 0.00 82 1007.1
20260505164412 23 196 17.7 17.7 0.00 0.00 0.00 84 1006.9
20260505163910 23 214 8.0 14.5 0.00 0.00 0.00 85 1007.1
20260505163409 23 243 8.0 11.3 0.00 0.00 0.00 85 1006.8
20260505162908 23 219 14.5 17.7 0.00 0.00 0.00 84 1007.1
20260505162403 23 189 11.3 14.5 0.00 0.00 0.00 85 1006.9
20260505161900 23 207 12.9 20.9 0.00 0.00 0.00 85 1006.7
20260505161357 23 200 8.0 12.9 0.00 0.00 0.00 85 1007.0
20260505160854 23 201 16.1 20.9 0.00 0.00 0.00 85 1006.9
20260505160352 23 200 14.5 22.5 0.00 0.00 0.00 86 1006.8